This is the latest recevied weather packets stored in our database for station/object K5FEP. If no packets are shown the sender has not sent any weather packets the latest 10 day(s).
| Time | Temp. | Humidity | Pressure | Rain* | Wind** | Luminosity | Snow |
|---|---|---|---|---|---|---|---|
| 1777770228 | 10.56° C | 79% | 1012.4 hPa | 0 mm | - | 0 W/m² | - |
| 1777769925 | 10.56° C | 77% | 1012.6 hPa | 0 mm | - | 0 W/m² | - |
| 1777769623 | 10.56° C | 77% | 1012.3 hPa | 0 mm | - | 0 W/m² | - |
| 1777769318 | 11.11° C | 78% | 1012.4 hPa | 0 mm | - | 0 W/m² | - |
| 1777769016 | 11.11° C | 77% | 1012.4 hPa | 0 mm | - | 0 W/m² | - |
| 1777768714 | 11.11° C | 75% | 1012.3 hPa | 0 mm | - | 0 W/m² | - |
| 1777768410 | 11.67° C | 75% | 1012.2 hPa | 0 mm | - | 0 W/m² | - |
| 1777768107 | 11.67° C | 76% | 1012.1 hPa | 0 mm | - | 0 W/m² | - |
| 1777767804 | 12.22° C | 71% | 1012.2 hPa | 0 mm | - | 0 W/m² | - |
| 1777767501 | 12.22° C | 67% | 1012.2 hPa | 0 mm | - | 0 W/m² | - |
| 1777767197 | 12.22° C | 69% | 1012.3 hPa | 0 mm | - | 1 W/m² | - |
| 1777766895 | 12.22° C | 66% | 1012.2 hPa | 0 mm | - | 2 W/m² | - |
| 1777766592 | 12.22° C | 69% | 1011.9 hPa | 0 mm | - | 3 W/m² | - |
| 1777766289 | 12.22° C | 66% | 1011.8 hPa | 0 mm | - | 5 W/m² | - |
| 1777765986 | 12.78° C | 65% | 1011.7 hPa | 0 mm | - | 8 W/m² | - |
| 1777765683 | 12.78° C | 64% | 1011.6 hPa | 0 mm | - | 11 W/m² | - |
| 1777765380 | 13.33° C | 63% | 1011.6 hPa | 0 mm | - | 16 W/m² | - |
| 1777765076 | 13.33° C | 61% | 1011.5 hPa | 0 mm | - | 25 W/m² | - |
| 1777764773 | 13.33° C | 56% | 1011.4 hPa | 0 mm | - | 37 W/m² | - |
| 1777764469 | 13.33° C | 58% | 1011.1 hPa | 0 mm | - | 50 W/m² | - |
| 1777764166 | 13.33° C | 59% | 1011.2 hPa | 0 mm | - | 51 W/m² | - |
| 1777763862 | 13.89° C | 58% | 1011.3 hPa | 0 mm | - | 50 W/m² | - |
| 1777763560 | 13.89° C | 62% | 1011.1 hPa | 0 mm | - | 48 W/m² | - |
| 1777763259 | 13.89° C | 53% | 1011 hPa | 0 mm | - | 52 W/m² | - |
| 1777762957 | 13.89° C | 54% | 1010.9 hPa | 0 mm | - | 54 W/m² | - |
* Rain latest hour (hover to see other rain measurements)
** Current wind speed in m/s (hover to see current wind gust speed)